Regional Weather Roundup
Issued by NWS Burlington, VT

Home | Current Version | Previous Version | Text Only | Print | Product List | Glossary On
Versions: 1 2 3 4 5 6 7 8 9 10 11 12 13 14 15 16 17 18 19 20 21 22 23 24 25 26 27 28 29 30 31 32 33 34 35 36 37 38 39 40 41 42 43 44 45 46 47 48 49 50
000
ASUS41 KBTV 190630
RWRBTV
VERMONT REGIONAL WEATHER ROUNDUP
NATIONAL WEATHER SERVICE BURLINGTON VT
200 AM EDT FRI SEP 19 2014

NOTE: "FAIR" INDICATES FEW OR NO CLOUDS BELOW 12,000 FEET WITH NO
SIGNIFICANT WEATHER AND/OR OBSTRUCTIONS TO VISIBILITY.

* THESE REPORTS ARE NOT UNDER NWS QUALITY CONTROL AND/OR DO NOT
  REPORT WEATHER SUCH AS PRECIPITATION AND FOG.

VTZ001>019-190700-
_____VERMONT_____


CITY           SKY/WX    TMP DP  RH WIND       PRES   REMARKS
BURLINGTON     CLEAR     39  33  79 N5        30.28R
6HR MIN TEMP:  39; 6HR MAX TEMP:  49;

MONTPELIER     MOCLDY    36  34  92 CALM      30.28R
6HR MIN TEMP:  34; 6HR MAX TEMP:  41;

MORRISVILLE    CLEAR     34  32  92 CALM      30.27R
6HR MIN TEMP:  34; 6HR MAX TEMP:  42;

ST. JOHNSBURY*   N/A     33  31  92 MISG      30.24R
6HR MIN TEMP:  32; 6HR MAX TEMP:  45;

MIDDLEBURY*    FAIR      35  35 100 CALM      30.26R
6HR MIN TEMP:  34; 6HR MAX TEMP:  43;

RUTLAND*       CLEAR     36  34  93 CALM      30.25R
6HR MIN TEMP:  36; 6HR MAX TEMP:  46;

SPRINGFIELD    CLEAR     37  36  96 NW3       30.25R
6HR MIN TEMP:  37; 6HR MAX TEMP:  53;

HIGHGATE*      FAIR      37  32  82 CALM      30.29R
6HR MIN TEMP:  39; 6HR MAX TEMP:  47;

NEWPORT*       FAIR      35  30  84 CALM      30.27R
6HR MIN TEMP:  35; 6HR MAX TEMP:  44;

BENNINGTON     MOCLDY    39  37  92 S3        30.22R
6HR MIN TEMP:  38; 6HR MAX TEMP:  53;

MT. MANSFIELD*   N/A     30 N/A N/A N7          N/A

_____LAKE CHAMPLAIN_____


CITY           SKY/WX    TMP DP  RH WIND       PRES   REMARKS
BURTON ISLAND*   N/A     43  34  70 N1          N/A
COLCHESTER RF*   N/A     46  32  57 N16         N/A
DIAMOND ISL*     N/A     46  32  57 N15         N/A

$$

NYZ007-026>031-035-052-083-190700-
_____NORTHERN NEW YORK_____


CITY           SKY/WX    TMP DP  RH WIND       PRES   REMARKS
PLATTSBURGH    CLOUDY    38  31  76 NW6       30.28R
6HR MIN TEMP:  38; 6HR MAX TEMP:  46;

SARANAC LAKE   CLEAR     26  24  92 CALM      30.23R
6HR MIN TEMP:  26; 6HR MAX TEMP:  39;

MASSENA        CLEAR     34  32  92 CALM      30.32R
6HR MIN TEMP:  33; 6HR MAX TEMP:  46;

OGDENSBURG*    CLEAR     34  32  93 CALM      30.32R FOG
POTSDAM*       CLEAR     32  32 100 CALM      30.31R
WATERTOWN      CLEAR     36  29  75 E3        30.30R
6HR MIN TEMP:  36; 6HR MAX TEMP:  50;

FT DRUM        CLEAR     35  32  90 E3        30.28R
6HR MIN TEMP:  35; 6HR MAX TEMP:  43;

ALBANY         PTCLDY    47  36  65 N8        30.25R
6HR MIN TEMP:  47; 6HR MAX TEMP:  54;

GLENS FALLS    CLEAR     40  36  86 CALM      30.25R
6HR MIN TEMP:  39; 6HR MAX TEMP:  50;


$$
NHZ002-005-011-190700-
_____NEW HAMPSHIRE_____


CITY           SKY/WX    TMP DP  RH WIND       PRES   REMARKS
LEBANON        CLEAR     34  30  85 S3        30.24R FOG
6HR MIN TEMP:  34; 6HR MAX TEMP:  51;

KEENE          PTCLDY    39  30  70 CALM      30.23R
6HR MIN TEMP:  39; 6HR MAX TEMP:  57;

MT WASHINGTON  FOG       19  19 100 NW43        N/A  VSB 1/16WCI  -2
6HR MIN TEMP:  19; 6HR MAX TEMP:  25;

PLYMOUTH       FAIR      38  38 100 NW6       30.24R
6HR MIN TEMP:  34; 6HR MAX TEMP:  49;

WHITEFIELD     CLEAR     30  27  88 CALM      30.23R
6HR MIN TEMP:  30; 6HR MAX TEMP:  44;


$$

_____REGIONAL QUEBEC LOCATIONS_____


CITY           SKY/WX    TMP DP  RH WIND       PRES   REMARKS
MONTREAL       PTCLDY    37  28  70 N8        30.29R
QUEBEC CITY    CLEAR     32  28  86 SE5       30.25R
SHERBROOKE     CLEAR     30  28  93 VRB2      30.25R

_____REGIONAL ONTARIO LOCATIONS_____


CITY           SKY/WX    TMP DP  RH WIND       PRES   REMARKS
OTTAWA         CLEAR     37  28  70 N8        30.32R

______KEY______
VSB  - VISIBILITY IN MILES
WCI  - WIND CHILL INDEX
HX   - HEAT INDEX
$$



USA.gov is the U.S. government's official web portal to all federal, state and local government web resources and services.